Total_Precipitation_Accumulation
1.64 1.57 1.48 1.28 1.15 1.01 0.88 0.88 0.96 0.86 0.79 0.73 0.63 0.56 0.54 0.51 0.46 0.43 0.42 0.45 0.50 0.73 0.95 1.09 1.14 1.20 1.26 1.25 1.20 1.14 1.02 0.95 0.92 0.89 0.84 0.80 0.80 0.77 0.78 0.77 0.73 0.71 0.72
1.78 1.75 1.63 1.44 1.29 1.15 0.99 0.89 0.93 0.96 0.92 0.87 0.80 0.71 0.67 0.61 0.53 0.49 0.44 0.46 0.50 0.59 0.80 0.95 1.07 1.24 1.46 1.52 1.46 1.35 1.19 1.07 1.01 0.98 0.97 0.93 0.88 0.84 0.85 0.84 0.83 0.83 0.82
1.91 1.90 1.78 1.56 1.43 1.39 1.26 1.15 1.13 1.11 1.02 0.90 0.81 0.79 0.77 0.69 0.61 0.58 0.53 0.50 0.49 0.53 0.68 0.87 0.98 1.17 1.40 1.56 1.64 1.60 1.41 1.20 1.11 1.07 1.04 1.03 1.00 0.96 1.01 1.02 0.95 0.91 0.93
2.05 2.09 1.97 1.74 1.72 1.79 1.65 1.46 1.36 1.25 1.10 1.00 0.90 0.87 0.82 0.77 0.66 0.62 0.60 0.54 0.51 0.52 0.64 0.87 0.98 1.09 1.24 1.43 1.60 1.70 1.65 1.49 1.35 1.21 1.13 1.11 1.06 1.05 1.10 1.15 1.12 1.04 1.08
2.05 2.06 2.04 1.95 1.97 2.01 1.94 1.76 1.64 1.55 1.34 1.19 1.09 1.06 1.04 0.98 0.88 0.76 0.69 0.68 0.65 0.64 0.78 0.99 1.08 1.09 1.10 1.23 1.42 1.58 1.66 1.60 1.46 1.32 1.24 1.21 1.15 1.12 1.15 1.18 1.15 1.12 1.11
2.03 2.01 1.97 2.07 2.14 2.12 2.07 2.02 1.86 1.77 1.65 1.54 1.44 1.30 1.26 1.22 1.08 0.89 0.78 0.77 0.77 0.80 0.91 0.98 1.02 1.10 1.12 1.03 1.11 1.36 1.58 1.64 1.54 1.42 1.33 1.27 1.25 1.23 1.24 1.25 1.27 1.26 1.21
2.25 2.16 1.99 2.05 2.17 2.07 1.96 2.03 2.11 2.10 2.00 1.86 1.79 1.61 1.49 1.37 1.23 1.00 0.82 0.79 0.81 0.87 0.91 0.96 1.01 0.93 0.83 0.78 0.85 1.02 1.30 1.55 1.62 1.57 1.43 1.32 1.30 1.35 1.39 1.42 1.45 1.45 1.43
2.27 2.26 2.25 2.17 2.26 2.25 2.16 2.11 2.18 2.27 2.18 2.14 2.09 2.00 1.79 1.64 1.36 1.11 0.95 0.86 0.84 0.89 0.91 0.91 0.91 0.90 0.79 0.72 0.72 0.82 1.06 1.39 1.60 1.68 1.60 1.48 1.41 1.45 1.56 1.65 1.69 1.64 1.63
2.37 2.27 2.29 2.32 2.31 2.34 2.27 2.20 2.19 2.25 2.28 2.20 2.13 2.24 1.97 1.64 1.39 1.23 1.05 0.95 0.91 0.92 0.95 0.97 0.94 0.91 0.85 0.78 0.74 0.79 0.87 1.07 1.42 1.76 1.92 1.87 1.76 1.70 1.74 1.85 1.90 1.89 1.83
2.41 2.35 2.29 2.27 2.32 2.31 2.26 2.31 2.35 2.25 2.27 2.29 2.23 2.06 1.86 1.60 1.51 1.39 1.23 1.13 1.03 0.98 0.99 1.01 0.97 0.91 0.90 0.86 0.85 0.88 0.92 0.97 1.23 1.65 2.06 2.22 2.13 2.04 2.08 2.19 2.28 2.26 2.12
2.38 2.30 2.29 2.25 2.22 2.25 2.26 2.31 2.36 2.40 2.32 2.25 2.20 2.13 2.04 1.80 1.61 1.57 1.43 1.33 1.30 1.17 1.07 1.03 1.03 1.01 0.96 0.94 0.91 0.96 1.04 1.06 1.23 1.51 1.89 2.22 2.38 2.40 2.42 2.46 2.52 2.51 2.39
2.40 2.26 2.23 2.19 2.16 2.16 2.16 2.25 2.33 2.41 2.39 2.27 2.16 2.02 1.98 1.89 1.73 1.70 1.55 1.37 1.39 1.29 1.20 1.13 1.09 1.08 1.09 1.10 1.12 1.24 1.19 1.23 1.34 1.49 1.79 2.12 2.35 2.45 2.59 2.71 2.74 2.69 2.62
2.49 2.27 2.21 2.21 2.18 2.12 2.14 2.28 2.38 2.40 2.41 2.34 2.26 2.15 2.03 1.88 1.79 1.83 1.82 1.61 1.45 1.32 1.29 1.25 1.18 1.16 1.17 1.23 1.30 1.45 1.34 1.35 1.40 1.51 1.79 2.08 2.19 2.27 2.35 2.49 2.68 2.71 2.68
2.50 2.43 2.36 2.31 2.29 2.24 2.19 2.21 2.24 2.27 2.31 2.28 2.20 2.12 2.05 1.93 1.92 1.92 1.94 2.03 1.91 1.59 1.42 1.32 1.22 1.23 1.29 1.36 1.50 1.61 1.39 1.48 1.42 1.43 1.58 1.78 1.85 1.86 1.95 2.14 2.42 2.60 2.63
2.18 2.34 2.37 2.32 2.25 2.22 2.19 2.19 2.16 2.08 2.13 2.14 2.10 2.04 1.95 1.82 1.84 1.87 1.87 1.99 2.18 1.99 1.55 1.24 1.18 1.19 1.25 1.29 1.48 1.42 1.32 1.49 1.47 1.40 1.41 1.44 1.45 1.45 1.46 1.56 1.77 2.02 2.17
1.76 1.92 2.10 2.17 2.16 2.13 2.10 2.12 2.10 2.00 2.02 1.94 1.88 1.91 1.87 1.76 1.69 1.72 1.81 1.87 1.97 2.05 1.77 1.23 1.08 1.11 1.20 1.24 1.39 1.27 1.22 1.45 1.41 1.36 1.31 1.29 1.29 1.27 1.27 1.29 1.37 1.56 1.71
1.53 1.61 1.74 1.86 1.92 1.96 1.98 1.99 1.95 1.90 1.90 1.86 1.80 1.76 1.71 1.69 1.72 1.69 1.70 1.78 1.87 1.94 1.89 1.39 1.14 1.14 1.25 1.29 1.31 1.24 1.19 1.20 1.21 1.36 1.28 1.22 1.19 1.17 1.17 1.20 1.22 1.29 1.38
1.33 1.34 1.42 1.50 1.58 1.63 1.66 1.71 1.73 1.72 1.72 1.73 1.70 1.69 1.65 1.62 1.62 1.62 1.68 1.71 1.74 1.79 1.83 1.62 1.30 1.19 1.20 1.19 1.20 1.21 1.17 1.12 1.08 1.28 1.25 1.21 1.17 1.13 1.10 1.11 1.16 1.19 1.22
1.33 1.25 1.22 1.26 1.31 1.35 1.40 1.42 1.45 1.49 1.50 1.50 1.55 1.58 1.57 1.62 1.67 1.62 1.60 1.58 1.54 1.55 1.63 1.64 1.42 1.20 1.14 1.11 1.16 1.16 1.11 1.07 1.01 1.10 1.17 1.22 1.22 1.17 1.15 1.13 1.16 1.17 1.13
1.24 1.27 1.17 1.09 1.12 1.17 1.24 1.30 1.32 1.35 1.38 1.42 1.45 1.48 1.50 1.53 1.54 1.55 1.60 1.58 1.53 1.53 1.52 1.57 1.50 1.37 1.28 1.21 1.24 1.25 1.24 1.13 1.07 0.99 1.09 1.15 1.24 1.23 1.14 1.06 1.01 1.04 1.07
1.10 1.17 1.16 1.09 1.04 1.07 1.13 1.19 1.23 1.28 1.29 1.33 1.36 1.38 1.43 1.55 1.61 1.58 1.57 1.56 1.61 1.71 1.72 1.72 1.62 1.45 1.31 1.26 1.23 1.14 1.20 1.19 1.16 1.11 1.09 1.05 1.01 0.99 1.01 1.03 1.01 1.01 1.07
1.02 1.10 1.14 1.15 1.13 1.15 1.37 1.36 1.28 1.27 1.29 1.30 1.30 1.27 1.28 1.36 1.39 1.46 1.49 1.49 1.60 1.76 1.89 1.89 1.70 1.42 1.18 1.08 1.06 1.11 1.23 1.33 1.28 1.01 0.98 1.03 1.00 1.02 0.98 0.97 1.10 1.07 1.06
1.07 1.15 1.21 1.24 1.24 1.31 1.45 1.37 1.36 1.24 1.22 1.23 1.22 1.19 1.16 1.15 1.20 1.10 1.21 1.29 1.33 1.48 1.59 1.54 1.47 1.22 1.08 1.04 1.20 1.33 1.28 1.27 1.12 0.95 1.04 1.14 1.08 1.09 1.00 1.02 1.15 1.07 1.07
1.27 1.32 1.39 1.40 1.40 1.41 1.43 1.36 1.38 1.19 1.10 1.06 1.01 0.96 0.94 0.92 0.95 1.03 1.09 1.17 1.10 1.07 1.11 1.09 1.09 1.05 1.03 1.10 1.30 1.52 1.53 1.49 1.25 1.07 1.07 1.20 1.06 1.04 1.02 1.04 1.13 1.08 1.10
1.39 1.34 1.33 1.32 1.30 1.27 1.28 1.23 1.22 1.08 1.01 0.94 0.85 0.80 0.81 0.79 0.94 1.12 1.14 1.18 1.02 0.91 0.99 1.09 1.18 1.21 1.32 1.37 1.42 1.68 1.85 1.93 1.69 1.23 1.03 1.10 1.01 0.97 1.03 1.05 1.06 1.09 1.08
1.15 1.10 1.06 1.02 1.00 0.97 1.01 1.01 1.05 0.99 0.95 0.85 0.78 0.75 0.83 0.83 0.99 1.14 1.09 1.12 1.07 0.90 0.89 0.98 1.03 1.09 1.09 1.17 1.34 1.37 1.58 1.92 1.77 1.41 0.96 1.04 1.09 1.18 1.44 1.13 0.99 0.97 0.99